User: anonymous   Login
Location: Unspecified
(0.0000°N, 0.0000°E)
Time: 19:51:23
(UTC+00:00)
Language:

Optus B3 - Orbit

View from above orbital plane
View from above orbital plane
View from above satellite
View from above satellite

Ground track
Ground track

The orbit data is extracted from the following two-line orbital elements,

1 23227U 94055A   18145.66826323 -.00000167 +00000-0 +00000-0 0  9999
2 23227 007.9193 048.1118 0007910 310.9499 241.3171 00.98696814086859
Epoch (UTC): 25 May 2018 16:02:17
Eccentricity: 0.0007910
inclination: 7.9193°
perigee height: 36200 km
apogee height: 36267 km
right ascension of ascending node: 48.1118°
argument of perigee: 310.9499°
revolutions per day: 0.98696814
mean anomaly at epoch: 241.3171°
orbit number at epoch: 8685

The dashed part of the orbit path shows where the satellite is in the earth's shadow,  

DLR